Time,TemperatureF,DewpointF,PressureIn,WindDirection,WindDirectionDegrees,WindSpeedMPH,WindSpeedGustMPH,Humidity,HourlyPrecipIn,Conditions,Clouds,dailyrainin,SoftwareType,DateUTC
2013-07-13 00:02:00,53.0,51.0,29.95,SSW,209,0.0,3.0,94,-99.99,,,-99.99,,2013-07-13 07:02:00,
2013-07-13 00:11:00,53.0,51.0,29.95,SE,144,0.0,1.0,94,-99.99,,,-99.99,,2013-07-13 07:11:00,
2013-07-13 00:22:00,53.0,51.0,29.95,SE,144,0.0,1.0,94,-99.99,,,-99.99,,2013-07-13 07:22:00,
2013-07-13 00:33:00,53.0,51.0,29.94,SSE,160,0.0,3.0,94,-99.99,,,-99.99,,2013-07-13 07:33:00,
2013-07-13 00:44:00,53.0,51.0,29.94,SSE,160,0.0,3.0,94,-99.99,,,-99.99,,2013-07-13 07:44:00,
2013-07-13 00:53:00,53.0,52.0,29.94,SSW,202,0.0,0.0,95,-99.99,,,-99.99,,2013-07-13 07:53:00,
2013-07-13 01:01:00,53.0,52.0,29.94,SSW,202,0.0,0.0,95,-99.99,,,-99.99,,2013-07-13 08:01:00,
2013-07-13 01:11:00,53.0,52.0,29.94,SSW,202,0.0,0.0,95,-99.99,,,-99.99,,2013-07-13 08:11:00,
2013-07-13 01:33:00,53.0,52.0,29.94,SW,223,3.0,5.0,95,-99.99,,,-99.99,,2013-07-13 08:33:00,
2013-07-13 01:43:00,52.0,51.0,29.95,SW,219,1.0,5.0,95,-99.99,,,-99.99,,2013-07-13 08:43:00,
2013-07-13 01:52:00,52.0,51.0,29.95,SW,219,1.0,5.0,95,-99.99,,,-99.99,,2013-07-13 08:52:00,
2013-07-13 02:02:00,52.0,51.0,29.95,SW,217,0.0,2.0,95,-99.99,,,-99.99,,2013-07-13 09:02:00,
2013-07-13 02:11:00,52.0,51.0,29.95,SW,220,1.0,5.0,95,-99.99,,,-99.99,,2013-07-13 09:11:00,
2013-07-13 02:22:00,52.0,51.0,29.94,SW,220,0.0,3.0,95,-99.99,,,-99.99,,2013-07-13 09:22:00,
2013-07-13 02:32:00,52.0,51.0,29.94,SW,220,0.0,2.0,96,-99.99,,,-99.99,,2013-07-13 09:32:00,
2013-07-13 02:42:00,52.0,51.0,29.94,SW,220,0.0,2.0,96,-99.99,,,-99.99,,2013-07-13 09:42:00,
2013-07-13 02:53:00,52.0,51.0,29.94,SW,220,0.0,2.0,96,-99.99,,,-99.99,,2013-07-13 09:53:00,
2013-07-13 03:01:00,52.0,51.0,29.94,SW,220,0.0,2.0,96,-99.99,,,-99.99,,2013-07-13 10:01:00,
2013-07-13 03:11:00,52.0,51.0,29.94,SW,220,0.0,2.0,96,-99.99,,,-99.99,,2013-07-13 10:11:00,
2013-07-13 03:32:00,52.0,51.0,29.94,SSW,199,0.0,5.0,96,-99.99,,,-99.99,,2013-07-13 10:32:00,
2013-07-13 03:43:00,52.0,51.0,29.95,SSW,212,2.0,5.0,96,-99.99,,,-99.99,,2013-07-13 10:43:00,
2013-07-13 03:52:00,52.0,51.0,29.95,SW,215,1.0,5.0,96,-99.99,,,-99.99,,2013-07-13 10:52:00,
2013-07-13 04:02:00,52.0,51.0,29.95,SSW,198,0.0,6.0,96,-99.99,,,-99.99,,2013-07-13 11:02:00,
2013-07-13 04:11:00,52.0,51.0,29.94,South,191,0.0,3.0,96,-99.99,,,-99.99,,2013-07-13 11:11:00,
2013-07-13 04:32:00,52.0,51.0,29.94,South,179,1.0,2.0,96,-99.99,,,-99.99,,2013-07-13 11:32:00,
2013-07-13 04:42:00,52.0,51.0,29.94,SW,222,3.0,3.0,97,-99.99,,,-99.99,,2013-07-13 11:42:00,
2013-07-13 04:52:00,52.0,51.0,29.94,SW,222,3.0,3.0,97,-99.99,,,-99.99,,2013-07-13 11:52:00,
2013-07-13 05:02:00,52.0,51.0,29.94,SW,220,0.0,4.0,97,-99.99,,,-99.99,,2013-07-13 12:02:00,
2013-07-13 05:12:00,52.0,51.0,29.94,SW,220,0.0,4.0,97,-99.99,,,-99.99,,2013-07-13 12:12:00,
2013-07-13 05:22:00,52.0,51.0,29.94,SW,220,0.0,4.0,97,-99.99,,,-99.99,,2013-07-13 12:22:00,
2013-07-13 05:32:00,52.0,51.0,29.93,SSW,205,0.0,2.0,97,-99.99,,,-99.99,,2013-07-13 12:32:00,
2013-07-13 05:43:00,52.0,51.0,29.94,SSW,205,0.0,2.0,97,-99.99,,,-99.99,,2013-07-13 12:43:00,
2013-07-13 05:52:00,52.0,51.0,29.94,SSW,205,0.0,2.0,97,-99.99,,,-99.99,,2013-07-13 12:52:00,
2013-07-13 06:01:00,52.0,51.0,29.94,SSW,205,0.0,2.0,97,-99.99,,,-99.99,,2013-07-13 13:01:00,
2013-07-13 06:11:00,52.0,51.0,29.94,SSW,205,0.0,2.0,97,-99.99,,,-99.99,,2013-07-13 13:11:00,
2013-07-13 06:22:00,52.0,51.0,29.94,WSW,240,0.0,2.0,97,-99.99,,,-99.99,,2013-07-13 13:22:00,
2013-07-13 06:32:00,52.0,51.0,29.95,SSW,203,0.0,2.0,97,-99.99,,,-99.99,,2013-07-13 13:32:00,
2013-07-13 06:43:00,51.0,50.0,29.95,WSW,240,2.0,3.0,97,-99.99,,,-99.99,,2013-07-13 13:43:00,
2013-07-13 07:02:00,51.0,50.0,29.96,WSW,251,0.0,2.0,97,-99.99,,,-99.99,,2013-07-13 14:02:00,
2013-07-13 07:11:00,51.0,50.0,29.96,WSW,251,0.0,2.0,97,-99.99,,,-99.99,,2013-07-13 14:11:00,
2013-07-13 07:32:00,51.0,50.0,29.96,SSW,209,1.0,3.0,97,-99.99,,,-99.99,,2013-07-13 14:32:00,
2013-07-13 07:53:00,51.0,50.0,29.98,SSW,209,0.0,3.0,98,-99.99,,,-99.99,,2013-07-13 14:53:00,
2013-07-13 08:02:00,51.0,50.0,29.98,South,175,2.0,3.0,98,-99.99,,,-99.99,,2013-07-13 15:02:00,
2013-07-13 08:12:00,51.0,50.0,29.98,South,175,2.0,3.0,98,-99.99,,,-99.99,,2013-07-13 15:12:00,
2013-07-13 08:33:00,51.0,50.0,29.98,WSW,239,3.0,3.0,98,-99.99,,,-99.99,,2013-07-13 15:33:00,
2013-07-13 08:53:00,52.0,51.0,29.99,WSW,244,0.0,3.0,98,-99.99,,,-99.99,,2013-07-13 15:53:00,
2013-07-13 09:01:00,52.0,51.0,29.99,WSW,243,2.0,3.0,98,-99.99,,,-99.99,,2013-07-13 16:01:00,
2013-07-13 09:11:00,52.0,51.0,29.99,West,274,3.0,3.0,98,-99.99,,,-99.99,,2013-07-13 16:11:00,
2013-07-13 09:32:00,53.0,52.0,29.99,SW,227,4.0,5.0,98,-99.99,,,-99.99,,2013-07-13 16:32:00,
2013-07-13 09:43:00,53.0,52.0,29.99,WSW,237,2.0,7.0,98,-99.99,,,-99.99,,2013-07-13 16:43:00,
2013-07-13 09:53:00,53.0,52.0,29.99,WSW,237,2.0,7.0,98,-99.99,,,-99.99,,2013-07-13 16:53:00,
2013-07-13 10:01:00,54.0,53.0,29.99,SW,230,2.0,7.0,98,-99.99,,,-99.99,,2013-07-13 17:01:00,
2013-07-13 10:11:00,54.0,53.0,29.99,SW,230,2.0,7.0,98,-99.99,,,-99.99,,2013-07-13 17:11:00,
2013-07-13 10:33:00,55.0,54.0,29.99,WSW,258,7.0,7.0,97,-99.99,,,-99.99,,2013-07-13 17:33:00,
2013-07-13 10:42:00,55.0,54.0,29.99,WSW,258,7.0,7.0,97,-99.99,,,-99.99,,2013-07-13 17:42:00,
2013-07-13 10:52:00,55.0,54.0,29.99,WSW,258,7.0,7.0,97,-99.99,,,-99.99,,2013-07-13 17:52:00,
2013-07-13 11:01:00,58.0,56.0,29.98,WSW,254,5.0,6.0,94,-99.99,,,-99.99,,2013-07-13 18:01:00,
2013-07-13 11:11:00,58.0,56.0,29.98,WSW,254,5.0,6.0,94,-99.99,,,-99.99,,2013-07-13 18:11:00,
2013-07-13 11:21:00,60.0,56.0,29.98,WNW,291,2.0,7.0,88,-99.99,,,-99.99,,2013-07-13 18:21:00,
2013-07-13 11:32:00,63.0,55.0,29.98,SSW,213,4.0,11.0,74,-99.99,,,-99.99,,2013-07-13 18:32:00,
2013-07-13 11:43:00,64.0,54.0,29.98,WSW,244,5.0,12.0,71,-99.99,,,-99.99,,2013-07-13 18:43:00,
2013-07-13 11:52:00,64.0,54.0,29.98,WSW,244,5.0,12.0,71,-99.99,,,-99.99,,2013-07-13 18:52:00,
2013-07-13 12:02:00,66.0,55.0,29.98,SW,215,3.0,11.0,68,-99.99,,,-99.99,,2013-07-13 19:02:00,
2013-07-13 12:11:00,66.0,55.0,29.98,SW,215,3.0,11.0,68,-99.99,,,-99.99,,2013-07-13 19:11:00,
2013-07-13 12:32:00,65.0,54.0,29.99,SW,226,10.0,12.0,67,-99.99,,,-99.99,,2013-07-13 19:32:00,
2013-07-13 12:44:00,65.0,54.0,29.99,SW,226,10.0,12.0,67,-99.99,,,-99.99,,2013-07-13 19:44:00,
2013-07-13 12:52:00,65.0,54.0,29.99,SW,226,10.0,12.0,67,-99.99,,,-99.99,,2013-07-13 19:52:00,
2013-07-13 13:01:00,66.0,55.0,29.98,SW,233,4.0,11.0,67,-99.99,,,-99.99,,2013-07-13 20:01:00,
2013-07-13 13:11:00,66.0,54.0,29.98,SSW,210,5.0,13.0,65,-99.99,,,-99.99,,2013-07-13 20:11:00,
2013-07-13 13:22:00,66.0,54.0,29.98,SSW,210,5.0,13.0,65,-99.99,,,-99.99,,2013-07-13 20:22:00,
2013-07-13 13:33:00,66.0,54.0,29.98,SSW,210,5.0,13.0,65,-99.99,,,-99.99,,2013-07-13 20:33:00,
2013-07-13 13:42:00,68.0,55.0,29.97,SW,222,2.0,12.0,63,-99.99,,,-99.99,,2013-07-13 20:42:00,
2013-07-13 13:52:00,68.0,55.0,29.97,SW,222,2.0,12.0,63,-99.99,,,-99.99,,2013-07-13 20:52:00,
2013-07-13 14:02:00,68.0,55.0,29.97,SW,222,2.0,12.0,63,-99.99,,,-99.99,,2013-07-13 21:02:00,
2013-07-13 14:11:00,68.0,55.0,29.97,SW,223,12.0,13.0,64,-99.99,,,-99.99,,2013-07-13 21:11:00,
2013-07-13 14:22:00,67.0,55.0,29.97,SW,226,6.0,14.0,66,-99.99,,,-99.99,,2013-07-13 21:22:00,
2013-07-13 14:32:00,67.0,55.0,29.97,SW,226,6.0,14.0,66,-99.99,,,-99.99,,2013-07-13 21:32:00,
2013-07-13 14:42:00,67.0,55.0,29.97,SW,226,6.0,14.0,66,-99.99,,,-99.99,,2013-07-13 21:42:00,
2013-07-13 14:53:00,67.0,55.0,29.97,SW,226,6.0,14.0,66,-99.99,,,-99.99,,2013-07-13 21:53:00,
2013-07-13 15:01:00,67.0,56.0,29.97,SW,217,10.0,14.0,68,-99.99,,,-99.99,,2013-07-13 22:01:00,
2013-07-13 15:11:00,67.0,56.0,29.97,SW,217,10.0,14.0,68,-99.99,,,-99.99,,2013-07-13 22:11:00,
2013-07-13 15:32:00,66.0,55.0,29.97,WSW,248,7.0,14.0,68,-99.99,,,-99.99,,2013-07-13 22:32:00,
2013-07-13 15:43:00,65.0,55.0,29.97,SW,215,3.0,14.0,70,-99.99,,,-99.99,,2013-07-13 22:43:00,
2013-07-13 15:53:00,65.0,55.0,29.97,SW,215,3.0,14.0,70,-99.99,,,-99.99,,2013-07-13 22:53:00,
2013-07-13 16:01:00,65.0,55.0,29.97,WSW,246,7.0,13.0,70,-99.99,,,-99.99,,2013-07-13 23:01:00,
2013-07-13 16:11:00,66.0,56.0,29.96,WSW,239,7.0,13.0,70,-99.99,,,-99.99,,2013-07-13 23:11:00,
2013-07-13 16:22:00,66.0,56.0,29.96,WSW,239,7.0,13.0,70,-99.99,,,-99.99,,2013-07-13 23:22:00,
2013-07-13 16:32:00,66.0,55.0,29.96,SSW,213,9.0,14.0,68,-99.99,,,-99.99,,2013-07-13 23:32:00,
2013-07-13 16:42:00,67.0,56.0,29.96,SW,216,6.0,13.0,68,-99.99,,,-99.99,,2013-07-13 23:42:00,
2013-07-13 16:53:00,67.0,56.0,29.96,WSW,239,5.0,13.0,69,-99.99,,,-99.99,,2013-07-13 23:53:00,
2013-07-13 17:01:00,66.0,56.0,29.96,SW,234,9.0,13.0,69,-99.99,,,-99.99,,2013-07-14 00:01:00,
2013-07-13 17:11:00,66.0,56.0,29.96,SW,234,9.0,13.0,69,-99.99,,,-99.99,,2013-07-14 00:11:00,
2013-07-13 17:21:00,66.0,56.0,29.96,West,265,7.0,13.0,70,-99.99,,,-99.99,,2013-07-14 00:21:00,
2013-07-13 17:33:00,66.0,56.0,29.95,WSW,243,8.0,14.0,70,-99.99,,,-99.99,,2013-07-14 00:33:00,
2013-07-13 17:42:00,65.0,56.0,29.95,SW,227,10.0,13.0,73,-99.99,,,-99.99,,2013-07-14 00:42:00,
2013-07-13 17:52:00,65.0,56.0,29.95,SW,227,10.0,13.0,73,-99.99,,,-99.99,,2013-07-14 00:52:00,
2013-07-13 18:01:00,65.0,56.0,29.95,SW,227,10.0,13.0,73,-99.99,,,-99.99,,2013-07-14 01:01:00,
2013-07-13 18:11:00,65.0,56.0,29.95,SW,227,10.0,13.0,73,-99.99,,,-99.99,,2013-07-14 01:11:00,
2013-07-13 18:32:00,63.0,55.0,29.95,SW,232,11.0,14.0,74,-99.99,,,-99.99,,2013-07-14 01:32:00,
2013-07-13 18:43:00,62.0,54.0,29.95,WSW,254,6.0,14.0,76,-99.99,,,-99.99,,2013-07-14 01:43:00,
2013-07-13 18:52:00,62.0,55.0,29.95,SW,216,9.0,12.0,77,-99.99,,,-99.99,,2013-07-14 01:52:00,
2013-07-13 19:01:00,62.0,55.0,29.96,SW,224,7.0,12.0,78,-99.99,,,-99.99,,2013-07-14 02:01:00,
2013-07-13 19:11:00,61.0,54.0,29.96,SW,234,5.0,12.0,79,-99.99,,,-99.99,,2013-07-14 02:11:00,
2013-07-13 19:22:00,61.0,54.0,29.96,SW,227,8.0,12.0,79,-99.99,,,-99.99,,2013-07-14 02:22:00,
2013-07-13 19:32:00,60.0,54.0,29.96,WSW,244,8.0,13.0,80,-99.99,,,-99.99,,2013-07-14 02:32:00,
2013-07-13 19:42:00,60.0,54.0,29.96,SW,233,7.0,11.0,81,-99.99,,,-99.99,,2013-07-14 02:42:00,
2013-07-13 19:53:00,59.0,54.0,29.97,SW,226,6.0,11.0,82,-99.99,,,-99.99,,2013-07-14 02:53:00,
2013-07-13 20:01:00,59.0,54.0,29.97,SW,226,6.0,11.0,82,-99.99,,,-99.99,,2013-07-14 03:01:00,
2013-07-13 20:11:00,57.0,53.0,29.97,SW,224,7.0,9.0,85,-99.99,,,-99.99,,2013-07-14 03:11:00,
2013-07-13 20:22:00,57.0,53.0,29.97,SW,224,7.0,9.0,85,-99.99,,,-99.99,,2013-07-14 03:22:00,
2013-07-13 20:32:00,56.0,52.0,29.98,WSW,243,1.0,8.0,88,-99.99,,,-99.99,,2013-07-14 03:32:00,
2013-07-13 20:43:00,56.0,52.0,29.98,WSW,243,1.0,8.0,88,-99.99,,,-99.99,,2013-07-14 03:43:00,
2013-07-13 20:53:00,56.0,53.0,29.98,West,260,0.0,6.0,89,-99.99,,,-99.99,,2013-07-14 03:53:00,
2013-07-13 21:02:00,56.0,53.0,29.98,West,260,0.0,6.0,89,-99.99,,,-99.99,,2013-07-14 04:02:00,
2013-07-13 21:11:00,55.0,52.0,29.98,WSW,247,2.0,6.0,90,-99.99,,,-99.99,,2013-07-14 04:11:00,
2013-07-13 21:22:00,55.0,52.0,29.98,WSW,247,2.0,6.0,90,-99.99,,,-99.99,,2013-07-14 04:22:00,
2013-07-13 21:32:00,55.0,52.0,29.98,SW,215,1.0,5.0,91,-99.99,,,-99.99,,2013-07-14 04:32:00,
2013-07-13 21:42:00,55.0,52.0,29.98,SW,230,2.0,5.0,91,-99.99,,,-99.99,,2013-07-14 04:42:00,
2013-07-13 21:53:00,55.0,53.0,29.98,SW,219,3.0,5.0,92,-99.99,,,-99.99,,2013-07-14 04:53:00,
2013-07-13 22:02:00,54.0,52.0,29.98,SW,229,3.0,4.0,92,-99.99,,,-99.99,,2013-07-14 05:02:00,
2013-07-13 22:11:00,54.0,52.0,29.98,SW,229,3.0,4.0,92,-99.99,,,-99.99,,2013-07-14 05:11:00,
2013-07-13 22:32:00,54.0,52.0,30.00,SSW,212,2.0,5.0,92,-99.99,,,-99.99,,2013-07-14 05:32:00,
2013-07-13 22:43:00,54.0,52.0,30.00,SSW,212,2.0,5.0,92,-99.99,,,-99.99,,2013-07-14 05:43:00,
2013-07-13 22:53:00,54.0,52.0,30.00,SW,220,1.0,3.0,93,-99.99,,,-99.99,,2013-07-14 05:53:00,
2013-07-13 23:01:00,54.0,52.0,30.00,SW,227,1.0,3.0,93,-99.99,,,-99.99,,2013-07-14 06:01:00,
2013-07-13 23:11:00,54.0,52.0,30.00,WSW,240,0.0,3.0,93,-99.99,,,-99.99,,2013-07-14 06:11:00,
2013-07-13 23:22:00,54.0,52.0,30.00,WSW,240,0.0,3.0,93,-99.99,,,-99.99,,2013-07-14 06:22:00,
2013-07-13 23:32:00,54.0,52.0,30.00,SSW,213,1.0,3.0,93,-99.99,,,-99.99,,2013-07-14 06:32:00,
2013-07-13 23:42:00,54.0,52.0,30.00,SW,219,3.0,4.0,93,-99.99,,,-99.99,,2013-07-14 06:42:00,
2013-07-13 23:53:00,53.0,51.0,30.00,SW,226,1.0,6.0,93,-99.99,,,-99.99,,2013-07-14 06:53:00,